Location: ??????
(55.8274°N, 37.9338°E)
Time: 11:13:10
(UTC+00:00)

Meteor 2-4 Rocket - Pass Details

Date: 14 April 2024
Orbit: 799 x 907 km, 81.2° (Epoch: 18 May)

Event Time Altitude Azimuth Distance (km) Brightness Sun altitude
Rises 01:18:58 0° 187° (S) 3,312 6.4 -9.2°
Reaches altitude 10° 01:21:19 10° 186° (S) 2,395 5.7 -8.9°
Maximum altitude 01:26:43 78° 102° (ESE) 849 3.8 -8.3°
Drops below altitude 10° 01:32:19 10° 16° (NNE) 2,474 6.9 -7.6°
Sets 01:34:46 0° 16° (NNE) 3,430 7.6 -7.3°
